Location: Unspecified
(51.5147°N, 7.4673°E)
Time: 06:26:41
(UTC+01:00)

Transit 4A - Pass Details

Date: 20 February 2026
Orbit: 863 x 978 km, 66.8° (Epoch: 14 March)

Event Time Altitude Azimuth Distance (km) Brightness Sun altitude
Exits shadow 05:20:41 41° 280° (W) 1,287 8.2 -21.4°
Maximum altitude 05:22:07 49° 319° (NW) 1,161 8.2 -21.2°
Drops below altitude 10° 05:28:02 10° 33° (NNE) 2,635 10.8 -20.3°
Sets 05:30:42 0° 40° (NE) 3,599 11.7 -19.9°
